owner,sensor,date,latitude,longitude,vertical_datum,sea_water_practical_salinity,qcFlag 
SCCF RECON,ioos:station:SCCF:51:1,2009-09-10T19:00:00Z,26.5545,-82.1715,1.866,32.29,1111122 
SCCF RECON,ioos:station:SCCF:51:1,2009-09-10T20:00:00Z,26.5545,-82.1715,1.96,34.91,1111122 
SCCF RECON,ioos:station:SCCF:51:1,2009-09-10T21:00:00Z,26.5545,-82.1715,2.01,34.16,1111122 
SCCF RECON,ioos:station:SCCF:51:1,2009-09-10T22:00:00Z,26.5545,-82.1715,2.06,35.12,1111122 
SCCF RECON,ioos:station:SCCF:51:1,2009-09-10T23:00:00Z,26.5545,-82.1715,2.055,35.0,1111122 
SCCF RECON,ioos:station:SCCF:51:1,2009-09-11T00:00:00Z,26.5545,-82.1715,2.023,32.72,1111122 
SCCF RECON,ioos:station:SCCF:51:1,2009-09-11T01:00:00Z,26.5545,-82.1715,2.037,31.89,1111122 
SCCF RECON,ioos:station:SCCF:51:1,2009-09-11T02:00:00Z,26.5545,-82.1715,2.047,30.05,1111122 
SCCF RECON,ioos:station:SCCF:51:1,2009-09-11T03:00:00Z,26.5545,-82.1715,2.059,29.67,1111122 
SCCF RECON,ioos:station:SCCF:51:1,2009-09-11T04:00:00Z,26.5545,-82.1715,2.063,29.43,1111122 
SCCF RECON,ioos:station:SCCF:51:1,2009-09-11T05:00:00Z,26.5545,-82.1715,2.1,28.98,1111122 
SCCF RECON,ioos:station:SCCF:51:1,2009-09-11T06:00:00Z,26.5545,-82.1715,2.164,29.22,1111122 
SCCF RECON,ioos:station:SCCF:51:1,2009-09-11T07:00:00Z,26.5545,-82.1715,2.23,31.34,1111122 
SCCF RECON,ioos:station:SCCF:51:1,2009-09-11T08:00:00Z,26.5545,-82.1715,2.29,34.82,1111122 
SCCF RECON,ioos:station:SCCF:51:1,2009-09-11T09:00:00Z,26.5545,-82.1715,2.308,35.3,1111122 
SCCF RECON,ioos:station:SCCF:51:1,2009-09-11T10:00:00Z,26.5545,-82.1715,2.28,35.28,1111122 
SCCF RECON,ioos:station:SCCF:51:1,2009-09-11T11:00:00Z,26.5545,-82.1715,2.221,35.18,1111122 
SCCF RECON,ioos:station:SCCF:51:1,2009-09-11T12:00:00Z,26.5545,-82.1715,2.162,30.21,1111122 
SCCF RECON,ioos:station:SCCF:51:1,2009-09-11T13:00:00Z,26.5545,-82.1715,2.084,29.07,1111122 
SCCF RECON,ioos:station:SCCF:51:1,2009-09-11T14:00:00Z,26.5545,-82.1715,1.975,29.12,1111122 
SCCF RECON,ioos:station:SCCF:51:1,2009-09-11T15:00:00Z,26.5545,-82.1715,1.859,28.81,1111122 
SCCF RECON,ioos:station:SCCF:51:1,2009-09-11T16:00:00Z,26.5545,-82.1715,1.752,30.85,1111122 
SCCF RECON,ioos:station:SCCF:51:1,2009-09-11T17:00:00Z,26.5545,-82.1715,1.671,30.15,1111122 
SCCF RECON,ioos:station:SCCF:51:1,2009-09-11T18:00:00Z,26.5545,-82.1715,1.666,30.37,1111122 
SCCF RECON,ioos:station:SCCF:51:1,2009-09-11T19:00:00Z,26.5545,-82.1715,1.719,30.16,1111122 
SCCF RECON,ioos:station:SCCF:51:1,2009-09-11T20:00:00Z,26.5545,-82.1715,1.826,29.89,1111122 
SCCF RECON,ioos:station:SCCF:51:1,2009-09-11T21:00:00Z,26.5545,-82.1715,1.918,31.89,1111122 
SCCF RECON,ioos:station:SCCF:51:1,2009-09-11T22:00:00Z,26.5545,-82.1715,1.98,34.32,1111122 
SCCF RECON,ioos:station:SCCF:51:1,2009-09-11T23:00:00Z,26.5545,-82.1715,2.03,34.39,1111122 
SCCF RECON,ioos:station:SCCF:51:1,2009-09-12T00:00:00Z,26.5545,-82.1715,2.08,34.65,1111122 
SCCF RECON,ioos:station:SCCF:51:1,2009-09-12T01:00:00Z,26.5545,-82.1715,2.11,34.74,1111122 
SCCF RECON,ioos:station:SCCF:51:1,2009-09-12T02:00:00Z,26.5545,-82.1715,2.137,34.73,1111122 
SCCF RECON,ioos:station:SCCF:51:1,2009-09-12T03:00:00Z,26.5545,-82.1715,2.141,35.24,1111122 
SCCF RECON,ioos:station:SCCF:51:1,2009-09-12T04:00:00Z,26.5545,-82.1715,2.141,35.08,1111122 
SCCF RECON,ioos:station:SCCF:51:1,2009-09-12T05:00:00Z,26.5545,-82.1715,2.167,35.24,1111122 
SCCF RECON,ioos:station:SCCF:51:1,2009-09-12T06:00:00Z,26.5545,-82.1715,2.172,35.27,1111122 
SCCF RECON,ioos:station:SCCF:51:1,2009-09-12T07:00:00Z,26.5545,-82.1715,2.201,33.53,1111122 
SCCF RECON,ioos:station:SCCF:51:1,2009-09-12T08:00:00Z,26.5545,-82.1715,2.264,35.0,1111122 
SCCF RECON,ioos:station:SCCF:51:1,2009-09-12T09:00:00Z,26.5545,-82.1715,2.351,34.98,1111122 
SCCF RECON,ioos:station:SCCF:51:1,2009-09-12T10:00:00Z,26.5545,-82.1715,2.412,34.94,1111122 
SCCF RECON,ioos:station:SCCF:51:1,2009-09-12T11:00:00Z,26.5545,-82.1715,2.409,34.52,1111122 
SCCF RECON,ioos:station:SCCF:51:1,2009-09-12T12:00:00Z,26.5545,-82.1715,2.38,34.15,1111122 
SCCF RECON,ioos:station:SCCF:51:1,2009-09-12T13:00:00Z,26.5545,-82.1715,2.25,34.6,1111122 
SCCF RECON,ioos:station:SCCF:51:1,2009-09-12T14:00:00Z,26.5545,-82.1715,2.124,31.76,1111122 
SCCF RECON,ioos:station:SCCF:51:1,2009-09-12T15:00:00Z,26.5545,-82.1715,2.0,32.99,1111122 
SCCF RECON,ioos:station:SCCF:51:1,2009-09-12T16:00:00Z,26.5545,-82.1715,1.881,32.11,1111122 
SCCF RECON,ioos:station:SCCF:51:1,2009-09-12T17:00:00Z,26.5545,-82.1715,1.763,30.39,1111122 
SCCF RECON,ioos:station:SCCF:51:1,2009-09-12T18:00:00Z,26.5545,-82.1715,1.67,30.33,1111122 
SCCF RECON,ioos:station:SCCF:51:1,2009-09-12T19:00:00Z,26.5545,-82.1715,1.646,29.66,1111122 
SCCF RECON,ioos:station:SCCF:51:1,2009-09-12T20:00:00Z,26.5545,-82.1715,1.727,29.41,1111122 
SCCF RECON,ioos:station:SCCF:51:1,2009-09-12T21:00:00Z,26.5545,-82.1715,1.788,29.23,1111122 
SCCF RECON,ioos:station:SCCF:51:1,2009-09-12T22:00:00Z,26.5545,-82.1715,1.865,31.65,1111122 
SCCF RECON,ioos:station:SCCF:51:1,2009-09-12T23:00:00Z,26.5545,-82.1715,1.955,32.18,1111122 
SCCF RECON,ioos:station:SCCF:51:1,2009-09-13T00:00:00Z,26.5545,-82.1715,2.053,33.56,1111122 
SCCF RECON,ioos:station:SCCF:51:1,2009-09-13T01:00:00Z,26.5545,-82.1715,2.084,33.51,1111122 
SCCF RECON,ioos:station:SCCF:51:1,2009-09-13T02:00:00Z,26.5545,-82.1715,2.105,32.99,1111122 
SCCF RECON,ioos:station:SCCF:51:1,2009-09-13T03:00:00Z,26.5545,-82.1715,2.135,33.73,1111122 
SCCF RECON,ioos:station:SCCF:51:1,2009-09-13T04:00:00Z,26.5545,-82.1715,2.131,33.99,1111122 
SCCF RECON,ioos:station:SCCF:51:1,2009-09-13T05:00:00Z,26.5545,-82.1715,2.125,33.74,1111122 
SCCF RECON,ioos:station:SCCF:51:1,2009-09-13T06:00:00Z,26.5545,-82.1715,2.146,34.09,1111122 
SCCF RECON,ioos:station:SCCF:51:1,2009-09-13T07:00:00Z,26.5545,-82.1715,2.164,32.78,1111122 
SCCF RECON,ioos:station:SCCF:51:1,2009-09-13T08:00:00Z,26.5545,-82.1715,2.212,34.1,1111122 
SCCF RECON,ioos:station:SCCF:51:1,2009-09-13T09:00:00Z,26.5545,-82.1715,2.266,33.92,1111122 
SCCF RECON,ioos:station:SCCF:51:1,2009-09-13T10:00:00Z,26.5545,-82.1715,2.332,34.39,1111122 
SCCF RECON,ioos:station:SCCF:51:1,2009-09-13T11:00:00Z,26.5545,-82.1715,2.393,34.5,1111122 
SCCF RECON,ioos:station:SCCF:51:1,2009-09-13T12:00:00Z,26.5545,-82.1715,2.396,34.51,1111122 
SCCF RECON,ioos:station:SCCF:51:1,2009-09-13T13:00:00Z,26.5545,-82.1715,2.362,33.83,1111122 
SCCF RECON,ioos:station:SCCF:51:1,2009-09-13T14:00:00Z,26.5545,-82.1715,2.282,33.5,1111122 
SCCF RECON,ioos:station:SCCF:51:1,2009-09-13T15:00:00Z,26.5545,-82.1715,2.179,33.05,1111122 
SCCF RECON,ioos:station:SCCF:51:1,2009-09-13T16:00:00Z,26.5545,-82.1715,2.049,31.56,1111122 
SCCF RECON,ioos:station:SCCF:51:1,2009-09-13T17:00:00Z,26.5545,-82.1715,1.924,30.72,1111122 
SCCF RECON,ioos:station:SCCF:51:1,2009-09-13T18:00:00Z,26.5545,-82.1715,1.8,30.35,1111122 
SCCF RECON,ioos:station:SCCF:51:1,2009-09-13T19:00:00Z,26.5545,-82.1715,1.699,29.77,1111122 
SCCF RECON,ioos:station:SCCF:51:1,2009-09-13T20:00:00Z,26.5545,-82.1715,1.644,29.49,1111122 
SCCF RECON,ioos:station:SCCF:51:1,2009-09-13T21:00:00Z,26.5545,-82.1715,1.67,30.17,1111122 
SCCF RECON,ioos:station:SCCF:51:1,2009-09-13T22:00:00Z,26.5545,-82.1715,1.767,30.55,1111122 
SCCF RECON,ioos:station:SCCF:51:1,2009-09-13T23:00:00Z,26.5545,-82.1715,1.857,30.92,1111122 
SCCF RECON,ioos:station:SCCF:51:1,2009-09-14T00:00:00Z,26.5545,-82.1715,1.95,32.36,1111122 
SCCF RECON,ioos:station:SCCF:51:1,2009-09-14T01:00:00Z,26.5545,-82.1715,2.02,32.17,1111122 
SCCF RECON,ioos:station:SCCF:51:1,2009-09-14T02:00:00Z,26.5545,-82.1715,2.08,32.36,1111122 
SCCF RECON,ioos:station:SCCF:51:1,2009-09-14T03:00:00Z,26.5545,-82.1715,2.131,32.81,1111122 
SCCF RECON,ioos:station:SCCF:51:1,2009-09-14T04:00:00Z,26.5545,-82.1715,2.16,32.8,1111122 
SCCF RECON,ioos:station:SCCF:51:1,2009-09-14T05:00:00Z,26.5545,-82.1715,2.132,32.71,1111122 
SCCF RECON,ioos:station:SCCF:51:1,2009-09-14T06:00:00Z,26.5545,-82.1715,2.123,32.99,1111122 
SCCF RECON,ioos:station:SCCF:51:1,2009-09-14T07:00:00Z,26.5545,-82.1715,2.113,32.95,1111122 
SCCF RECON,ioos:station:SCCF:51:1,2009-09-14T08:00:00Z,26.5545,-82.1715,2.135,32.93,1111122 
SCCF RECON,ioos:station:SCCF:51:1,2009-09-14T09:00:00Z,26.5545,-82.1715,2.167,33.03,1111122 
SCCF RECON,ioos:station:SCCF:51:1,2009-09-14T10:00:00Z,26.5545,-82.1715,2.214,32.53,1111122 
SCCF RECON,ioos:station:SCCF:51:1,2009-09-14T11:00:00Z,26.5545,-82.1715,2.269,33.08,1111122 
SCCF RECON,ioos:station:SCCF:51:1,2009-09-14T12:00:00Z,26.5545,-82.1715,2.34,33.59,1111122 
SCCF RECON,ioos:station:SCCF:51:1,2009-09-14T13:00:00Z,26.5545,-82.1715,2.393,33.94,1111122 
SCCF RECON,ioos:station:SCCF:51:1,2009-09-14T14:00:00Z,26.5545,-82.1715,2.401,33.78,1111122 
SCCF RECON,ioos:station:SCCF:51:1,2009-09-14T15:00:00Z,26.5545,-82.1715,2.369,33.36,1111122 
SCCF RECON,ioos:station:SCCF:51:1,2009-09-14T16:00:00Z,26.5545,-82.1715,2.278,33.1,1111122 
SCCF RECON,ioos:station:SCCF:51:1,2009-09-14T17:00:00Z,26.5545,-82.1715,2.14,33.13,1111122 
SCCF RECON,ioos:station:SCCF:51:1,2009-09-14T18:00:00Z,26.5545,-82.1715,1.98,31.87,1111122 
SCCF RECON,ioos:station:SCCF:51:1,2009-09-14T19:00:00Z,26.5545,-82.1715,1.832,32.49,1111122 
SCCF RECON,ioos:station:SCCF:51:1,2009-09-14T20:00:00Z,26.5545,-82.1715,1.711,32.4,1111122 
SCCF RECON,ioos:station:SCCF:51:1,2009-09-14T21:00:00Z,26.5545,-82.1715,1.656,32.14,1111122 
SCCF RECON,ioos:station:SCCF:51:1,2009-09-14T22:00:00Z,26.5545,-82.1715,1.68,32.65,1111122 
SCCF RECON,ioos:station:SCCF:51:1,2009-09-14T23:00:00Z,26.5545,-82.1715,1.77,30.69,1111122 
SCCF RECON,ioos:station:SCCF:51:1,2009-09-15T00:00:00Z,26.5545,-82.1715,1.87,32.81,1111122 
SCCF RECON,ioos:station:SCCF:51:1,2009-09-15T01:00:00Z,26.5545,-82.1715,2.0,33.73,1111122 
SCCF RECON,ioos:station:SCCF:51:1,2009-09-15T02:00:00Z,26.5545,-82.1715,2.091,33.93,1111122 
SCCF RECON,ioos:station:SCCF:51:1,2009-09-15T03:00:00Z,26.5545,-82.1715,2.151,33.99,1111122 
SCCF RECON,ioos:station:SCCF:51:1,2009-09-15T04:00:00Z,26.5545,-82.1715,2.19,33.4,1111122 
SCCF RECON,ioos:station:SCCF:51:1,2009-09-15T05:00:00Z,26.5545,-82.1715,2.186,33.42,1111122 
SCCF RECON,ioos:station:SCCF:51:1,2009-09-15T06:00:00Z,26.5545,-82.1715,2.142,33.24,1111122 
SCCF RECON,ioos:station:SCCF:51:1,2009-09-15T07:00:00Z,26.5545,-82.1715,2.083,33.86,1111122 
SCCF RECON,ioos:station:SCCF:51:1,2009-09-15T08:00:00Z,26.5545,-82.1715,2.034,33.76,1111122 
SCCF RECON,ioos:station:SCCF:51:1,2009-09-15T09:00:00Z,26.5545,-82.1715,2.038,33.34,1111122 
SCCF RECON,ioos:station:SCCF:51:1,2009-09-15T10:00:00Z,26.5545,-82.1715,2.09,31.03,1111122 
SCCF RECON,ioos:station:SCCF:51:1,2009-09-15T11:00:00Z,26.5545,-82.1715,2.159,30.71,1111122 
SCCF RECON,ioos:station:SCCF:51:1,2009-09-15T12:00:00Z,26.5545,-82.1715,2.241,33.34,1111122 
SCCF RECON,ioos:station:SCCF:51:1,2009-09-15T13:00:00Z,26.5545,-82.1715,2.351,34.76,1111122 
SCCF RECON,ioos:station:SCCF:51:1,2009-09-15T14:00:00Z,26.5545,-82.1715,2.421,34.75,1111122 
SCCF RECON,ioos:station:SCCF:51:1,2009-09-15T15:00:00Z,26.5545,-82.1715,2.417,35.03,1111122 
SCCF RECON,ioos:station:SCCF:51:1,2009-09-15T16:00:00Z,26.5545,-82.1715,2.347,35.2,1111122 
SCCF RECON,ioos:station:SCCF:51:1,2009-09-15T17:00:00Z,26.5545,-82.1715,2.25,33.79,1111122 
SCCF RECON,ioos:station:SCCF:51:1,2009-09-15T18:00:00Z,26.5545,-82.1715,2.11,33.73,1111122 
SCCF RECON,ioos:station:SCCF:51:1,2009-09-15T19:00:00Z,26.5545,-82.1715,1.96,33.53,1111122 
SCCF RECON,ioos:station:SCCF:51:1,2009-09-15T20:00:00Z,26.5545,-82.1715,1.824,33.88,1111122 
SCCF RECON,ioos:station:SCCF:51:1,2009-09-15T21:00:00Z,26.5545,-82.1715,1.73,33.66,1111122 
SCCF RECON,ioos:station:SCCF:51:1,2009-09-15T22:00:00Z,26.5545,-82.1715,1.691,33.4,1111122 
SCCF RECON,ioos:station:SCCF:51:1,2009-09-15T23:00:00Z,26.5545,-82.1715,1.727,32.73,1111122 
SCCF RECON,ioos:station:SCCF:51:1,2009-09-16T00:00:00Z,26.5545,-82.1715,1.828,31.18,1111122 
SCCF RECON,ioos:station:SCCF:51:1,2009-09-16T01:00:00Z,26.5545,-82.1715,1.957,32.1,1111122 
SCCF RECON,ioos:station:SCCF:51:1,2009-09-16T02:00:00Z,26.5545,-82.1715,2.063,33.75,1111122 
SCCF RECON,ioos:station:SCCF:51:1,2009-09-16T03:00:00Z,26.5545,-82.1715,2.17,33.96,1111122 
SCCF RECON,ioos:station:SCCF:51:1,2009-09-16T04:00:00Z,26.5545,-82.1715,2.242,34.24,1111122 
SCCF RECON,ioos:station:SCCF:51:1,2009-09-16T05:00:00Z,26.5545,-82.1715,2.26,34.18,1111122 
SCCF RECON,ioos:station:SCCF:51:1,2009-09-16T06:00:00Z,26.5545,-82.1715,2.22,34.24,1111122 
SCCF RECON,ioos:station:SCCF:51:1,2009-09-16T07:00:00Z,26.5545,-82.1715,2.158,33.98,1111122 
SCCF RECON,ioos:station:SCCF:51:1,2009-09-16T08:00:00Z,26.5545,-82.1715,2.071,34.46,1111122 
SCCF RECON,ioos:station:SCCF:51:1,2009-09-16T09:00:00Z,26.5545,-82.1715,2.014,33.75,1111122 
SCCF RECON,ioos:station:SCCF:51:1,2009-09-16T10:00:00Z,26.5545,-82.1715,2.01,34.23,1111122 
SCCF RECON,ioos:station:SCCF:51:1,2009-09-16T11:00:00Z,26.5545,-82.1715,2.066,33.08,1111122 
SCCF RECON,ioos:station:SCCF:51:1,2009-09-16T12:00:00Z,26.5545,-82.1715,2.165,31.84,1111122 
SCCF RECON,ioos:station:SCCF:51:1,2009-09-16T13:00:00Z,26.5545,-82.1715,2.289,33.79,1111122 
SCCF RECON,ioos:station:SCCF:51:1,2009-09-16T14:00:00Z,26.5545,-82.1715,2.397,34.49,1111122 
SCCF RECON,ioos:station:SCCF:51:1,2009-09-16T15:00:00Z,26.5545,-82.1715,2.454,34.77,1111122 
SCCF RECON,ioos:station:SCCF:51:1,2009-09-16T16:00:00Z,26.5545,-82.1715,2.452,35.07,1111122 
SCCF RECON,ioos:station:SCCF:51:1,2009-09-16T17:00:00Z,26.5545,-82.1715,2.389,35.12,1111122 
SCCF RECON,ioos:station:SCCF:51:1,2009-09-16T18:00:00Z,26.5545,-82.1715,2.281,34.35,1111122 
SCCF RECON,ioos:station:SCCF:51:1,2009-09-16T19:00:00Z,26.5545,-82.1715,2.14,33.84,1111122 
SCCF RECON,ioos:station:SCCF:51:1,2009-09-16T20:00:00Z,26.5545,-82.1715,1.99,32.49,1111122 
SCCF RECON,ioos:station:SCCF:51:1,2009-09-16T21:00:00Z,26.5545,-82.1715,1.859,33.0,1111122 
SCCF RECON,ioos:station:SCCF:51:1,2009-09-16T22:00:00Z,26.5545,-82.1715,1.759,31.71,1111122 
SCCF RECON,ioos:station:SCCF:51:1,2009-09-16T23:00:00Z,26.5545,-82.1715,1.696,31.53,1111122 
SCCF RECON,ioos:station:SCCF:51:1,2009-09-17T00:00:00Z,26.5545,-82.1715,1.74,31.02,1111122 
SCCF RECON,ioos:station:SCCF:51:1,2009-09-17T01:00:00Z,26.5545,-82.1715,1.861,31.16,1111122 
SCCF RECON,ioos:station:SCCF:51:1,2009-09-17T02:00:00Z,26.5545,-82.1715,2.02,32.55,1111122 
SCCF RECON,ioos:station:SCCF:51:1,2009-09-17T03:00:00Z,26.5545,-82.1715,2.17,33.83,1111122 
SCCF RECON,ioos:station:SCCF:51:1,2009-09-17T04:00:00Z,26.5545,-82.1715,2.251,34.56,1111122 
SCCF RECON,ioos:station:SCCF:51:1,2009-09-17T05:00:00Z,26.5545,-82.1715,2.266,33.78,1111122 
SCCF RECON,ioos:station:SCCF:51:1,2009-09-17T06:00:00Z,26.5545,-82.1715,2.22,33.06,1111122 
SCCF RECON,ioos:station:SCCF:51:1,2009-09-17T07:00:00Z,26.5545,-82.1715,2.127,32.67,1111122 
SCCF RECON,ioos:station:SCCF:51:1,2009-09-17T08:00:00Z,26.5545,-82.1715,2.028,31.97,1111122 
SCCF RECON,ioos:station:SCCF:51:1,2009-09-17T09:00:00Z,26.5545,-82.1715,1.937,31.07,1111122 
SCCF RECON,ioos:station:SCCF:51:1,2009-09-17T10:00:00Z,26.5545,-82.1715,1.872,32.22,1111122 
SCCF RECON,ioos:station:SCCF:51:1,2009-09-17T11:00:00Z,26.5545,-82.1715,1.87,31.26,1111122 
SCCF RECON,ioos:station:SCCF:51:1,2009-09-17T12:00:00Z,26.5545,-82.1715,1.959,29.6,1111122 
SCCF RECON,ioos:station:SCCF:51:1,2009-09-17T13:00:00Z,26.5545,-82.1715,2.08,32.96,1111122 
SCCF RECON,ioos:station:SCCF:51:1,2009-09-17T14:00:00Z,26.5545,-82.1715,2.25,34.69,1111122 
SCCF RECON,ioos:station:SCCF:51:1,2009-09-17T15:00:00Z,26.5545,-82.1715,2.37,34.5,1111122 
SCCF RECON,ioos:station:SCCF:51:1,2009-09-17T16:00:00Z,26.5545,-82.1715,2.43,35.0,1111122 
SCCF RECON,ioos:station:SCCF:51:1,2009-09-17T17:00:00Z,26.5545,-82.1715,2.423,35.09,1111122 
SCCF RECON,ioos:station:SCCF:51:1,2009-09-17T18:00:00Z,26.5545,-82.1715,2.358,35.16,1111122 
SCCF RECON,ioos:station:SCCF:51:1,2009-09-17T19:00:00Z,26.5545,-82.1715,2.247,34.54,1111122 
SCCF RECON,ioos:station:SCCF:51:1,2009-09-17T20:00:00Z,26.5545,-82.1715,2.11,32.49,1111122 
SCCF RECON,ioos:station:SCCF:51:1,2009-09-17T21:00:00Z,26.5545,-82.1715,1.973,32.56,1111122 
SCCF RECON,ioos:station:SCCF:51:1,2009-09-17T22:00:00Z,26.5545,-82.1715,1.85,32.17,1111122 
SCCF RECON,ioos:station:SCCF:51:1,2009-09-17T23:00:00Z,26.5545,-82.1715,1.776,31.9,1111122 
SCCF RECON,ioos:station:SCCF:51:1,2009-09-18T00:00:00Z,26.5545,-82.1715,1.772,32.17,1111122 
SCCF RECON,ioos:station:SCCF:51:1,2009-09-18T01:00:00Z,26.5545,-82.1715,1.86,32.73,1111122 
SCCF RECON,ioos:station:SCCF:51:1,2009-09-18T02:00:00Z,26.5545,-82.1715,1.997,33.26,1111122 
SCCF RECON,ioos:station:SCCF:51:1,2009-09-18T03:00:00Z,26.5545,-82.1715,2.16,34.06,1111122 
SCCF RECON,ioos:station:SCCF:51:1,2009-09-18T04:00:00Z,26.5545,-82.1715,2.274,34.38,1111122 
SCCF RECON,ioos:station:SCCF:51:1,2009-09-18T05:00:00Z,26.5545,-82.1715,2.3,33.51,1111122 
SCCF RECON,ioos:station:SCCF:51:1,2009-09-18T06:00:00Z,26.5545,-82.1715,2.25,33.16,1111122 
SCCF RECON,ioos:station:SCCF:51:1,2009-09-18T07:00:00Z,26.5545,-82.1715,2.17,32.42,1111122 
SCCF RECON,ioos:station:SCCF:51:1,2009-09-18T08:00:00Z,26.5545,-82.1715,2.06,32.28,1111122 
SCCF RECON,ioos:station:SCCF:51:1,2009-09-18T09:00:00Z,26.5545,-82.1715,1.94,34.13,1111122 
SCCF RECON,ioos:station:SCCF:51:1,2009-09-18T10:00:00Z,26.5545,-82.1715,1.825,34.34,1111122 
SCCF RECON,ioos:station:SCCF:51:1,2009-09-18T11:00:00Z,26.5545,-82.1715,1.765,33.17,1111122 
SCCF RECON,ioos:station:SCCF:51:1,2009-09-18T12:00:00Z,26.5545,-82.1715,1.79,31.82,1111122 
SCCF RECON,ioos:station:SCCF:51:1,2009-09-18T13:00:00Z,26.5545,-82.1715,1.881,29.74,1111122 
SCCF RECON,ioos:station:SCCF:51:1,2009-09-18T14:00:00Z,26.5545,-82.1715,2.02,34.03,1111122 
SCCF RECON,ioos:station:SCCF:51:1,2009-09-18T15:00:00Z,26.5545,-82.1715,2.196,35.03,1111122 
SCCF RECON,ioos:station:SCCF:51:1,2009-09-18T16:00:00Z,26.5545,-82.1715,2.322,34.76,1111122 
SCCF RECON,ioos:station:SCCF:51:1,2009-09-18T17:00:00Z,26.5545,-82.1715,2.366,35.11,1111122 
SCCF RECON,ioos:station:SCCF:51:1,2009-09-18T18:00:00Z,26.5545,-82.1715,2.362,34.72,1111122 
SCCF RECON,ioos:station:SCCF:51:1,2009-09-18T19:00:00Z,26.5545,-82.1715,2.295,34.84,1111122 
SCCF RECON,ioos:station:SCCF:51:1,2009-09-18T20:00:00Z,26.5545,-82.1715,2.186,33.84,1111122 
SCCF RECON,ioos:station:SCCF:51:1,2009-09-18T21:00:00Z,26.5545,-82.1715,2.056,32.12,1111122 
SCCF RECON,ioos:station:SCCF:51:1,2009-09-18T22:00:00Z,26.5545,-82.1715,1.939,32.15,1111122 
SCCF RECON,ioos:station:SCCF:51:1,2009-09-18T23:00:00Z,26.5545,-82.1715,1.847,31.61,1111122 
SCCF RECON,ioos:station:SCCF:51:1,2009-09-19T00:00:00Z,26.5545,-82.1715,1.815,31.1,1111122 
SCCF RECON,ioos:station:SCCF:51:1,2009-09-19T01:00:00Z,26.5545,-82.1715,1.89,31.22,1111122 
SCCF RECON,ioos:station:SCCF:51:1,2009-09-19T02:00:00Z,26.5545,-82.1715,2.005,31.71,1111122 
SCCF RECON,ioos:station:SCCF:51:1,2009-09-19T03:00:00Z,26.5545,-82.1715,2.167,33.97,1111122 
SCCF RECON,ioos:station:SCCF:51:1,2009-09-19T04:00:00Z,26.5545,-82.1715,2.291,34.21,1111122 
SCCF RECON,ioos:station:SCCF:51:1,2009-09-19T05:00:00Z,26.5545,-82.1715,2.344,34.22,1111122 
SCCF RECON,ioos:station:SCCF:51:1,2009-09-19T06:00:00Z,26.5545,-82.1715,2.323,34.34,1111122 
SCCF RECON,ioos:station:SCCF:51:1,2009-09-19T07:00:00Z,26.5545,-82.1715,2.25,33.19,1111122 
SCCF RECON,ioos:station:SCCF:51:1,2009-09-19T08:00:00Z,26.5545,-82.1715,2.16,32.03,1111122 
SCCF RECON,ioos:station:SCCF:51:1,2009-09-19T09:00:00Z,26.5545,-82.1715,2.044,31.52,1111122 
SCCF RECON,ioos:station:SCCF:51:1,2009-09-19T10:00:00Z,26.5545,-82.1715,1.92,34.41,1111122 
SCCF RECON,ioos:station:SCCF:51:1,2009-09-19T11:00:00Z,26.5545,-82.1715,1.805,33.49,1111122 
SCCF RECON,ioos:station:SCCF:51:1,2009-09-19T12:00:00Z,26.5545,-82.1715,1.754,29.9,1111122 
SCCF RECON,ioos:station:SCCF:51:1,2009-09-19T13:00:00Z,26.5545,-82.1715,1.781,31.32,1111122 
SCCF RECON,ioos:station:SCCF:51:1,2009-09-19T14:00:00Z,26.5545,-82.1715,1.879,29.87,1111122 
SCCF RECON,ioos:station:SCCF:51:1,2009-09-19T15:00:00Z,26.5545,-82.1715,2.035,32.92,1111122 
SCCF RECON,ioos:station:SCCF:51:1,2009-09-19T16:00:00Z,26.5545,-82.1715,2.196,34.44,1111122 
SCCF RECON,ioos:station:SCCF:51:1,2009-09-19T17:00:00Z,26.5545,-82.1715,2.296,34.8,1111122 
SCCF RECON,ioos:station:SCCF:51:1,2009-09-19T18:00:00Z,26.5545,-82.1715,2.341,35.22,1111122 
SCCF RECON,ioos:station:SCCF:51:1,2009-09-19T19:00:00Z,26.5545,-82.1715,2.316,35.11,1111122 
SCCF RECON,ioos:station:SCCF:51:1,2009-09-19T20:00:00Z,26.5545,-82.1715,2.234,34.03,1111122 
SCCF RECON,ioos:station:SCCF:51:1,2009-09-19T21:00:00Z,26.5545,-82.1715,2.133,31.66,1111122 
SCCF RECON,ioos:station:SCCF:51:1,2009-09-19T22:00:00Z,26.5545,-82.1715,2.042,30.35,1111122 
SCCF RECON,ioos:station:SCCF:51:1,2009-09-19T23:00:00Z,26.5545,-82.1715,1.953,30.41,1111122 
SCCF RECON,ioos:station:SCCF:51:1,2009-09-20T00:00:00Z,26.5545,-82.1715,1.852,31.31,1111122 
SCCF RECON,ioos:station:SCCF:51:1,2009-09-20T01:00:00Z,26.5545,-82.1715,1.855,30.45,1111122 
SCCF RECON,ioos:station:SCCF:51:1,2009-09-20T02:00:00Z,26.5545,-82.1715,1.939,30.09,1111122 
SCCF RECON,ioos:station:SCCF:51:1,2009-09-20T03:00:00Z,26.5545,-82.1715,2.079,34.35,1111122 
SCCF RECON,ioos:station:SCCF:51:1,2009-09-20T04:00:00Z,26.5545,-82.1715,2.245,34.72,1111122 
SCCF RECON,ioos:station:SCCF:51:1,2009-09-20T05:00:00Z,26.5545,-82.1715,2.339,34.73,1111122 
SCCF RECON,ioos:station:SCCF:51:1,2009-09-20T06:00:00Z,26.5545,-82.1715,2.361,35.29,1111122 
SCCF RECON,ioos:station:SCCF:51:1,2009-09-20T07:00:00Z,26.5545,-82.1715,2.313,34.11,1111122 
SCCF RECON,ioos:station:SCCF:51:1,2009-09-20T08:00:00Z,26.5545,-82.1715,2.24,32.82,1111122 
SCCF RECON,ioos:station:SCCF:51:1,2009-09-20T09:00:00Z,26.5545,-82.1715,2.14,30.91,1111122 
SCCF RECON,ioos:station:SCCF:51:1,2009-09-20T10:00:00Z,26.5545,-82.1715,2.014,31.33,1111122 
SCCF RECON,ioos:station:SCCF:51:1,2009-09-20T11:00:00Z,26.5545,-82.1715,1.89,30.71,1111122 
SCCF RECON,ioos:station:SCCF:51:1,2009-09-20T12:00:00Z,26.5545,-82.1715,1.788,30.26,1111122 
SCCF RECON,ioos:station:SCCF:51:1,2009-09-20T13:00:00Z,26.5545,-82.1715,1.733,30.32,1111122 
SCCF RECON,ioos:station:SCCF:51:1,2009-09-20T14:00:00Z,26.5545,-82.1715,1.79,30.02,1111122 
SCCF RECON,ioos:station:SCCF:51:1,2009-09-20T15:00:00Z,26.5545,-82.1715,1.911,29.8,1111122 
SCCF RECON,ioos:station:SCCF:51:1,2009-09-20T16:00:00Z,26.5545,-82.1715,2.085,33.83,1111122 
SCCF RECON,ioos:station:SCCF:51:1,2009-09-20T17:00:00Z,26.5545,-82.1715,2.225,34.36,1111122 
SCCF RECON,ioos:station:SCCF:51:1,2009-09-20T18:00:00Z,26.5545,-82.1715,2.282,35.16,1111122 
SCCF RECON,ioos:station:SCCF:51:1,2009-09-20T19:00:00Z,26.5545,-82.1715,2.301,35.26,1111122 
SCCF RECON,ioos:station:SCCF:51:1,2009-09-20T20:00:00Z,26.5545,-82.1715,2.265,35.37,1111122 
SCCF RECON,ioos:station:SCCF:51:1,2009-09-20T21:00:00Z,26.5545,-82.1715,2.199,34.0,1111122 
SCCF RECON,ioos:station:SCCF:51:1,2009-09-20T22:00:00Z,26.5545,-82.1715,2.13,33.59,1111122 
SCCF RECON,ioos:station:SCCF:51:1,2009-09-20T23:00:00Z,26.5545,-82.1715,2.023,30.96,1111122 
SCCF RECON,ioos:station:SCCF:51:1,2009-09-21T00:00:00Z,26.5545,-82.1715,1.996,31.46,1111122 
SCCF RECON,ioos:station:SCCF:51:1,2009-09-21T01:00:00Z,26.5545,-82.1715,1.962,33.03,1111122 
SCCF RECON,ioos:station:SCCF:51:1,2009-09-21T02:00:00Z,26.5545,-82.1715,1.989,31.49,1111122 
SCCF RECON,ioos:station:SCCF:51:1,2009-09-21T03:00:00Z,26.5545,-82.1715,2.06,30.14,1111122 
SCCF RECON,ioos:station:SCCF:51:1,2009-09-21T04:00:00Z,26.5545,-82.1715,2.205,34.18,1111122 
SCCF RECON,ioos:station:SCCF:51:1,2009-09-21T05:00:00Z,26.5545,-82.1715,2.319,34.85,1111122 
SCCF RECON,ioos:station:SCCF:51:1,2009-09-21T06:00:00Z,26.5545,-82.1715,2.38,34.81,1111122 
SCCF RECON,ioos:station:SCCF:51:1,2009-09-21T07:00:00Z,26.5545,-82.1715,2.37,34.84,1111122 
SCCF RECON,ioos:station:SCCF:51:1,2009-09-21T08:00:00Z,26.5545,-82.1715,2.3,34.73,1111122 
SCCF RECON,ioos:station:SCCF:51:1,2009-09-21T09:00:00Z,26.5545,-82.1715,2.2,31.92,1111122 
SCCF RECON,ioos:station:SCCF:51:1,2009-09-21T10:00:00Z,26.5545,-82.1715,2.074,30.91,1111122 
SCCF RECON,ioos:station:SCCF:51:1,2009-09-21T11:00:00Z,26.5545,-82.1715,1.94,34.49,1111122 
SCCF RECON,ioos:station:SCCF:51:1,2009-09-21T12:00:00Z,26.5545,-82.1715,1.819,33.7,1111122 